User: anonymous   Login
Location: Unspecified
(0.0000°N, 0.0000°E)
Time: 18:57:02
(UTC+00:00)
Language:

Falconsat - Orbit

View from above orbital plane
View from above orbital plane
View from above satellite
View from above satellite

Ground track
Ground track

The orbit data is extracted from the following two-line orbital elements,

1 26064U 00004D   19340.75835947 -.00000021 +00000-0 +13150-4 0  9995
2 26064 100.2272 155.2820 0037167 300.3309 059.4197 14.36195274040415
Epoch (UTC): 06 December 2019 18:12:02
Eccentricity: 0.0037167
inclination: 100.2272°
perigee height: 744 km
apogee height: 797 km
right ascension of ascending node: 155.2820°
argument of perigee: 300.3309°
revolutions per day: 14.36195274
mean anomaly at epoch: 59.4197°
orbit number at epoch: 4041

The dashed part of the orbit path shows where the satellite is in the earth's shadow,  

DLR